sat.trackr.live / text

‹ back to catalog

STARLINK-36788

NORAD 67819 · 2026-032Y

PAYLOAD ACTIVE UNKNOWN

§ Identity

Operator
Country
US
Launch date
2026-02-15
Launch site
AFWTR
Launch vehicle
Mass (kg)
RCS (m²)

Purposes: comms

External: N2YO · Heavens-Above · Gunter

§ Orbital elements

Epoch: 2026-09-19T18:34:25.086144Z

Period
93.91 min
Inclination
97.2858°
Eccentricity
0.0001724
Mean motion
15.33446550 rev/d
Perigee alt
464.4 km
Apogee alt
466.7 km
Semi-major
6,843.7 km
B*
4.4561e-4
RAAN
89.1871°
Arg perigee
89.6780°
Mean anomaly
270.4661°
Rev number
3,470

§ Raw data

STARLINK-367881 67819U 26032Y   26262.77390146  .00014339  00000+0  44561-3 0  99912 67819  97.2858  89.1871 0001724  89.6780 270.4661 15.33446550 34704

JSON: /api/v1/satellites/67819 · /tle

For live sub-satellite position, see the globe view (requires WebGL).

§ Visibility from observer

Set your observer location to see the next 7 days of passes ≥ 10°. The values pass through the URL so the page stays shareable.

No JS? Fill the form by hand. The geolocation button needs JavaScript.